Regional Weather Roundup
Issued by NWS

Home | Current Version | Previous Version | Graphics & Text | Print | Product List | Glossary On
Versions: 1 2 3 4 5 6 7 8 9 10 11 12 13 14 15 16 17 18 19 20 21 22 23 24 25 26 27 28 29 30 31 32 33 34 35 36 37 38 39 40 41 42 43 44 45 46 47 48 49 50
000
ASUS44 KMEG 251510
RWRTN
TENNESSEE HOURLY STATE WEATHER ROUNDUP
NATIONAL WEATHER SERVICE MEMPHIS TN
900 AM CST SAT FEB 25 2017

TNZ002-004-019-021-049-052-054-088>092-251600-
WEST TENNESSEE

CITY           SKY/WX    TMP DP  RH WIND       PRES   REMARKS
MEMPHIS INTL   SUNNY     38  22  52 NW13G21   30.11R WCI  30
NWS MEMPHIS      N/A     37 N/A N/A MISG        N/A
JACKSON        SUNNY     38  23  55 N16       30.08R WCI  29
UNION CITY     MOSUNNY   36  16  44 NW13      30.06R WCI  27
PARIS          MOSUNNY   34  19  55 VRB7      30.05R WCI  28
HUNTINGDON     MOSUNNY   37  23  56 N8G15     30.04S WCI  31
$$

TNZ008-025-027-028-033-062-065-066-251600-
NORTH MIDDLE TENNESSEE

CITY           SKY/WX    TMP DP  RH WIND       PRES   REMARKS
NASHVILLE      PTSUNNY   42  25  50 W14G22    29.99R
PORTLAND       MOSUNNY   37  23  56 NW10G22   29.98R WCI  30
CLARKSVILLE    CLOUDY    36  19  50 W14       30.02R WCI  27
SMYRNA         PTSUNNY   42  26  53 W17       29.99R
COOKEVILLE     MOSUNNY   46  30  53 W10G16    29.91R
GALLATIN       MOSUNNY   41  23  48 NW14G25   30.01R
CROSSVILLE     MOSUNNY   41  30  65 W12G23    29.87R
$$

TNZ061-075-076-078-094-096-097-251600-
SOUTH MIDDLE TENNESSEE

CITY           SKY/WX    TMP DP  RH WIND       PRES   REMARKS
FAYETTEVILLE   SUNNY     45  28  53 NW10G17   29.97R
TULLAHOMA      SUNNY     43  28  56 W12       29.95R
WINCHESTER     SUNNY     45  30  57 NW7       29.95R
MCMINNVILLE    MOSUNNY   45  30  57 W12       29.93R
COLUMBIA       SUNNY     39  25  56 NW8       30.00R WCI  34
SHELBYVILLE    SUNNY     45  34  65 NW12      29.97R
$$

TNZ017-018-042-046-047-251600-
NORTHEAST TENNESSEE

CITY           SKY/WX    TMP DP  RH WIND       PRES   REMARKS
TRI CITIES     PTSUNNY   52  46  80 SW9       29.78R
ELIZABETHTON   CLOUDY    50  46  87 CALM      29.78R
$$

TNZ012-013-036-069-073-074-251600-
CENTRAL EAST TENNESSEE

CITY           SKY/WX    TMP DP  RH WIND       PRES   REMARKS
KNOXVILLE      PTSUNNY   55  29  36 W18G28    29.82R
OAK RIDGE      MOSUNNY   54  35  48 W8G17     29.84R
GATLINBURG     MOSUNNY   55  41  58 W13       29.80F
MORRISTOWN     MOSUNNY   54  45  71 W9        29.79S
JACKSBORO      PTSUNNY   48  37  66 VRB5G15   29.86R
$$

TNZ083-085-099-251600-
SOUTHEAST TENNESSEE

CITY           SKY/WX    TMP DP  RH WIND       PRES   REMARKS
CHATTANOOGA    MOSUNNY   54  32  43 W12       29.90R
$$

SKY/WX REPORTED AS FAIR MEANS FEW OR NO CLOUDS BELOW
12 THOUSAND FEET.




USA.gov is the U.S. government's official web portal to all federal, state and local government web resources and services.